When you browse on this site, cookies collect data to enhance your experience and personalize the content and advertising you see.
Visit our Privacy Policy to learn more. By continuing to use the site, you agree to this use of cookies and data.
  • In Netherlands
  • List of Countries
  • For 7 days
  • Water Temperature
  • Weather Map
  • Weather Widgets
  • user-avatar
    Login

    Hourly Weather Sovetskiy

    Today, 15 September, Sunday

    Time Temperature Precipitation Wind Pressure Humidity
    00:00 +17°C° 0 mm 2 mps 752 mmHg 68%
    01:00 +16°C° 0 mm 1 mps 751 mmHg 70%
    02:00 +16°C° 0 mm 1 mps 751 mmHg 72%
    03:00 +15°C° 0 mm 0 mps 751 mmHg 76%
    04:00 +15°C° 0 mm 0 mps 751 mmHg 77%
    05:00 +16°C° 0 mm 1 mps 752 mmHg 78%
    06:00 +16°C° 0 mm 1 mps 752 mmHg 78%
    07:00 +19°C° 0 mm 1 mps 752 mmHg 70%
    08:00 +21°C° 0 mm 1 mps 751 mmHg 61%
    09:00 +24°C° 0 mm 2 mps 752 mmHg 51%
    10:00 +25°C° 0 mm 2 mps 751 mmHg 46%
    11:00 +27°C° 0 mm 2 mps 751 mmHg 40%
    12:00 +28°C° 0 mm 2 mps 751 mmHg 35%
    13:00 +29°C° 0 mm 2 mps 751 mmHg 33%
    14:00 +29°C° 0 mm 1 mps 751 mmHg 30%
    15:00 +30°C° 0 mm 1 mps 751 mmHg 30%
    16:00 +28°C° 0 mm 1 mps 751 mmHg 33%
    17:00 +27°C° 0 mm 1 mps 751 mmHg 36%
    18:00 +26°C° 0 mm 1 mps 751 mmHg 39%
    19:00 +25°C° 0 mm 1 mps 752 mmHg 41%
    20:00 +24°C° 0 mm 1 mps 752 mmHg 43%
    21:00 +22°C° 0 mm 1 mps 752 mmHg 44%
    22:00 +21°C° 0 mm 2 mps 752 mmHg 46%
    23:00 +20°C° 0 mm 2 mps 752 mmHg 47%

    Tomorrow, 16 September, Monday

    Time Temperature Precipitation Wind Pressure Humidity
    00:00 +19°C° 0 mm 2 mps 752 mmHg 49%
    01:00 +19°C° 0 mm 2 mps 752 mmHg 50%
    02:00 +18°C° 0 mm 2 mps 752 mmHg 52%
    03:00 +17°C° 0 mm 2 mps 752 mmHg 54%
    04:00 +16°C° 0 mm 2 mps 752 mmHg 59%
    05:00 +16°C° 0 mm 2 mps 752 mmHg 64%
    06:00 +15°C° 0 mm 2 mps 752 mmHg 69%
    07:00 +17°C° 0 mm 2 mps 752 mmHg 64%
    08:00 +18°C° 0 mm 2 mps 751 mmHg 59%
    09:00 +21°C° 0 mm 1 mps 751 mmHg 54%
    10:00 +23°C° 0 mm 2 mps 750 mmHg 48%
    11:00 +25°C° 0 mm 2 mps 750 mmHg 42%
    12:00 +27°C° 0 mm 3 mps 749 mmHg 36%
    13:00 +28°C° 0 mm 3 mps 749 mmHg 35%
    14:00 +28°C° 0 mm 3 mps 748 mmHg 33%
    15:00 +29°C° 0 mm 3 mps 748 mmHg 32%
    16:00 +28°C° 0 mm 2 mps 748 mmHg 36%
    17:00 +27°C° 0 mm 1 mps 748 mmHg 40%
    18:00 +25°C° 0 mm 1 mps 747 mmHg 43%
    19:00 +24°C° 0 mm 1 mps 748 mmHg 46%
    20:00 +23°C° 0 mm 1 mps 748 mmHg 49%
    21:00 +22°C° 0 mm 1 mps 748 mmHg 51%
    22:00 +22°C° 0 mm 1 mps 748 mmHg 54%
    23:00 +21°C° 0 mm 1 mps 748 mmHg 56%

    Day after tomorrow, 17 September, Tuesday

    Time Temperature Precipitation Wind Pressure Humidity
    00:00 +21°C° 0 mm 1 mps 747 mmHg 58%
    01:00 +20°C° 0 mm 1 mps 747 mmHg 59%
    02:00 +20°C° 0 mm 1 mps 747 mmHg 60%
    03:00 +19°C° 0 mm 2 mps 747 mmHg 61%
    04:00 +19°C° 0 mm 2 mps 747 mmHg 61%
    05:00 +19°C° 0 mm 2 mps 747 mmHg 61%
    06:00 +19°C° 0 mm 2 mps 747 mmHg 61%
    07:00 +21°C° 0 mm 2 mps 747 mmHg 56%
    08:00 +24°C° 0 mm 3 mps 747 mmHg 51%
    09:00 +25°C° 0 mm 3 mps 747 mmHg 46%
    10:00 +26°C° 0 mm 3 mps 747 mmHg 44%
    11:00 +27°C° 0 mm 3 mps 747 mmHg 41%
    12:00 +29°C° 0 mm 3 mps 747 mmHg 39%
    13:00 +29°C° 0 mm 3 mps 747 mmHg 38%
    14:00 +29°C° 0 mm 3 mps 746 mmHg 37%
    15:00 +29°C° 0 mm 2 mps 746 mmHg 36%
    16:00 +27°C° 0.2 mm 3 mps 746 mmHg 48%
    17:00 +24°C° 0.2 mm 3 mps 746 mmHg 60%
    18:00 +20°C° 0.2 mm 4 mps 747 mmHg 72%
    19:00 +20°C° 0.2 mm 3 mps 747 mmHg 76%
    20:00 +19°C° 0.2 mm 2 mps 747 mmHg 80%
    21:00 +19°C° 0.2 mm 2 mps 747 mmHg 84%
    22:00 +18°C° 0 mm 2 mps 747 mmHg 84%
    23:00 +19°C° 0 mm 1 mps 747 mmHg 84%

    18 September, Wednesday

    Time Temperature Precipitation Wind Pressure Humidity
    00:00 +19°C° 0 mm 1 mps 747 mmHg 84%
    01:00 +18°C° 0 mm 2 mps 747 mmHg 83%
    02:00 +18°C° 0 mm 2 mps 747 mmHg 82%
    03:00 +18°C° 0 mm 2 mps 748 mmHg 82%
    04:00 +17°C° 0 mm 2 mps 748 mmHg 81%
    05:00 +17°C° 0 mm 2 mps 748 mmHg 80%
    06:00 +17°C° 0 mm 2 mps 748 mmHg 79%
    07:00 +20°C° 0 mm 1 mps 749 mmHg 68%
    08:00 +22°C° 0 mm 1 mps 749 mmHg 58%
    09:00 +24°C° 0 mm 1 mps 749 mmHg 48%
    10:00 +25°C° 0 mm 1 mps 749 mmHg 44%
    11:00 +27°C° 0 mm 1 mps 749 mmHg 41%
    12:00 +29°C° 0 mm 2 mps 749 mmHg 38%
    13:00 +29°C° 0 mm 2 mps 748 mmHg 35%
    14:00 +30°C° 0 mm 2 mps 748 mmHg 32%
    15:00 +31°C° 0 mm 2 mps 748 mmHg 29%
    16:00 +29°C° 0 mm 2 mps 748 mmHg 33%
    17:00 +28°C° 0 mm 2 mps 748 mmHg 36%
    18:00 +26°C° 0 mm 2 mps 748 mmHg 39%
    19:00 +25°C° 0 mm 2 mps 748 mmHg 41%
    20:00 +25°C° 0 mm 2 mps 748 mmHg 43%
    21:00 +24°C° 0 mm 2 mps 749 mmHg 46%
    22:00 +23°C° 0 mm 2 mps 748 mmHg 48%
    23:00 +23°C° 0 mm 2 mps 748 mmHg 51%

    19 September, Thursday

    Time Temperature Precipitation Wind Pressure Humidity
    00:00 +22°C° 0 mm 1 mps 748 mmHg 54%
    01:00 +21°C° 0 mm 2 mps 749 mmHg 56%
    02:00 +20°C° 0 mm 2 mps 749 mmHg 57%
    03:00 +20°C° 0 mm 2 mps 749 mmHg 58%
    04:00 +19°C° 0 mm 2 mps 750 mmHg 60%
    05:00 +18°C° 0 mm 2 mps 750 mmHg 61%
    06:00 +18°C° 0 mm 2 mps 750 mmHg 62%
    07:00 +19°C° 0 mm 2 mps 750 mmHg 63%
    08:00 +20°C° 0 mm 2 mps 751 mmHg 63%
    09:00 +21°C° 0 mm 3 mps 751 mmHg 63%
    10:00 +21°C° 0 mm 3 mps 751 mmHg 60%
    11:00 +22°C° 0 mm 3 mps 751 mmHg 57%
    12:00 +22°C° 0 mm 3 mps 751 mmHg 55%
    13:00 +24°C° 0 mm 3 mps 750 mmHg 52%
    14:00 +25°C° 0 mm 3 mps 750 mmHg 50%
    15:00 +25°C° 0 mm 3 mps 750 mmHg 47%
    16:00 +24°C° 0 mm 2 mps 750 mmHg 50%
    17:00 +23°C° 0 mm 2 mps 750 mmHg 52%
    18:00 +23°C° 0 mm 2 mps 750 mmHg 54%
    19:00 +21°C° 0 mm 2 mps 750 mmHg 56%
    20:00 +20°C° 0 mm 2 mps 750 mmHg 58%
    21:00 +19°C° 0 mm 2 mps 750 mmHg 60%
    22:00 +19°C° 0 mm 2 mps 750 mmHg 62%
    23:00 +18°C° 0 mm 2 mps 750 mmHg 65%

    20 September, Friday

    Time Temperature Precipitation Wind Pressure Humidity
    00:00 +18°C° 0 mm 2 mps 750 mmHg 68%
    01:00 +17°C° 0 mm 2 mps 750 mmHg 69%
    02:00 +18°C° 0 mm 1 mps 749 mmHg 71%
    03:00 +16°C° 0 mm 1 mps 749 mmHg 73%
    04:00 +16°C° 0 mm 1 mps 749 mmHg 74%
    05:00 +16°C° 0 mm 1 mps 749 mmHg 74%
    06:00 +15°C° 0 mm 1 mps 749 mmHg 75%
    07:00 +17°C° 0 mm 2 mps 749 mmHg 71%
    08:00 +19°C° 0 mm 2 mps 748 mmHg 66%
    09:00 +20°C° 0 mm 2 mps 748 mmHg 62%
    10:00 +21°C° 0 mm 2 mps 748 mmHg 61%
    11:00 +22°C° 0 mm 3 mps 748 mmHg 60%
    12:00 +24°C° 0 mm 3 mps 747 mmHg 60%
    13:00 +24°C° 0 mm 2 mps 747 mmHg 60%
    14:00 +23°C° 0 mm 2 mps 747 mmHg 60%
    15:00 +23°C° 0 mm 1 mps 747 mmHg 61%
    16:00 +21°C° 0 mm 3 mps 747 mmHg 57%
    17:00 +21°C° 0 mm 4 mps 747 mmHg 53%
    18:00 +20°C° 0 mm 5 mps 747 mmHg 49%
    19:00 +19°C° 0 mm 4 mps 747 mmHg 48%
    20:00 +19°C° 0 mm 4 mps 747 mmHg 47%
    21:00 +18°C° 0 mm 3 mps 748 mmHg 46%
    22:00 +18°C° 0 mm 3 mps 748 mmHg 47%
    23:00 +17°C° 0 mm 4 mps 748 mmHg 48%
    Show more